CW4226 Weather Reports


Display with metric or nautical units.
time (UTC)temp
F
wind
direction
speed
MPH
gust
MPH
rain 1hr
in
rain 24hr
in
rain mn
in
humidity
%
barometer
mb
20260509111620 46 76 0.0 2.0 0.00 0.11 0.11 97 1007.2
20260509111556 46 281 0.0 1.0 0.00 0.19 0.11 97 1006.3
20260509111117 46 66 2.0 3.0 0.00 0.11 0.11 97 1007.2
20260509110614 46 70 2.0 2.0 0.00 0.11 0.11 97 1007.2
20260509110112 46 49 2.0 2.0 0.00 0.11 0.11 97 1007.2
20260509110057 46 281 0.0 0.0 0.00 0.19 0.11 97 1006.2
20260509105610 46 60 2.0 2.0 0.00 0.11 0.11 97 1007.0
20260509105107 46 63 2.0 2.0 0.00 0.11 0.11 97 1007.3
20260509104603 46 55 2.0 2.0 0.00 0.11 0.11 97 1007.3
20260509104556 46 281 0.0 0.0 0.01 0.19 0.11 96 1006.2
20260509104100 46 54 1.0 2.0 0.00 0.11 0.11 97 1007.3
20260509103558 46 49 2.0 2.0 0.00 0.11 0.11 97 1007.1
20260509103056 46 34 0.0 2.0 0.00 0.11 0.11 97 1007.1
20260509102553 46 57 1.0 2.0 0.00 0.11 0.11 97 1007.1
20260509102050 46 62 2.0 2.0 0.00 0.11 0.11 97 1007.1
20260509101546 46 66 2.0 2.0 0.00 0.11 0.11 97 1007.0
20260509101043 46 69 2.0 2.0 0.00 0.11 0.11 97 1006.9
20260509100540 46 59 2.0 2.0 0.00 0.11 0.11 97 1007.1
20260509100055 46 281 0.0 1.0 0.02 0.19 0.11 96 1006.1
20260509100038 46 65 2.0 2.0 0.02 0.11 0.11 97 1007.1
20260509095534 46 46 2.0 2.0 0.02 0.11 0.11 97 1007.4
20260509095032 46 61 2.0 2.0 0.02 0.10 0.10 97 1007.4
20260509094557 46 281 0.0 1.0 0.01 0.18 0.10 96 1006.4
20260509094528 46 68 2.0 2.0 0.02 0.10 0.10 97 1007.4
20260509094025 46 47 1.0 2.0 0.02 0.10 0.10 97 1007.6
20260509093523 46 49 1.0 2.0 0.02 0.10 0.10 97 1007.1
20260509093021 46 66 0.0 1.0 0.00 0.09 0.09 97 1007.1
20260509092518 46 60 0.0 2.0 0.00 0.09 0.09 97 1007.2
20260509092017 46 58 1.0 2.0 0.00 0.09 0.09 97 1007.1
20260509091514 46 65 2.0 2.0 0.00 0.09 0.09 97 1007.3
20260509091010 46 44 0.0 1.0 0.00 0.09 0.09 97 1007.3
20260509090508 46 60 2.0 2.0 0.00 0.09 0.09 97 1007.3
20260509090056 46 281 0.0 1.0 0.00 0.17 0.09 96 1006.4
20260509090006 46 50 2.0 2.0 0.00 0.09 0.09 97 1007.3
20260509085502 46 46 2.0 2.0 0.00 0.09 0.09 96 1007.3
20260509084958 46 66 2.0 2.0 0.00 0.09 0.09 96 1007.4
20260509084556 46 281 0.0 1.0 0.01 0.17 0.09 96 1006.3
20260509084455 45 69 2.0 2.0 0.00 0.09 0.09 96 1007.4
20260509083953 45 67 1.0 2.0 0.02 0.09 0.09 96 1007.2
20260509083450 45 47 2.0 3.0 0.02 0.09 0.09 96 1007.4
20260509083057 46 281 0.0 0.0 0.01 0.17 0.09 95 1006.4
20260509082946 45 71 2.0 2.0 0.02 0.09 0.09 96 1007.6
20260509082444 45 62 1.0 3.0 0.02 0.09 0.09 96 1007.7
20260509081941 45 68 2.0 2.0 0.00 0.09 0.09 96 1007.6
20260509081557 46 281 0.0 1.0 0.02 0.17 0.09 95 1006.8
20260509081438 45 64 1.0 2.0 0.00 0.09 0.09 96 1007.7
20260509080935 46 56 2.0 2.0 0.00 0.09 0.09 96 1007.6
20260509080433 46 56 2.0 2.0 0.00 0.09 0.09 96 1007.5
20260509080056 46 281 0.0 0.0 0.04 0.17 0.09 95 1006.4
20260509075931 46 55 2.0 2.0 0.02 0.09 0.09 96 1007.6
20260509075428 46 57 1.0 2.0 0.02 0.09 0.09 96 1007.9
20260509074926 46 62 0.0 2.0 0.02 0.08 0.08 96 1007.8
20260509074423 46 59 2.0 3.0 0.02 0.08 0.08 96 1007.8
20260509073919 46 55 2.0 2.0 0.02 0.08 0.08 96 1007.9
20260509073415 46 57 2.0 3.0 0.02 0.08 0.08 96 1007.8
20260509073057 46 281 0.0 0.0 0.06 0.16 0.08 95 1006.8
20260509072912 46 64 2.0 2.0 0.02 0.07 0.07 95 1007.8
20260509072409 46 67 2.0 2.0 0.05 0.07 0.07 95 1007.9
20260509071905 46 60 2.0 2.0 0.07 0.07 0.07 95 1008.0
20260509071557 46 281 0.0 1.0 0.05 0.15 0.07 95 1006.9
20260509071402 46 70 2.0 3.0 0.07 0.07 0.07 95 1008.1
20260509070900 46 55 2.0 2.0 0.05 0.06 0.06 95 1008.3
20260509070356 45 58 2.0 2.0 0.05 0.06 0.06 95 1008.2
20260509070056 46 281 0.0 1.0 0.04 0.13 0.05 94 1007.1
20260509065852 45 55 2.0 2.0 0.07 0.05 0.05 95 1008.0
20260509065349 45 58 2.0 2.0 0.07 0.05 0.05 95 1007.9
20260509064844 45 68 2.0 2.0 0.07 0.04 0.04 95 1008.0
20260509064556 46 281 0.0 0.0 0.03 0.12 0.04 94 1007.0
20260509064342 45 62 2.0 3.0 0.05 0.03 0.03 94 1008.0
20260509063840 46 60 2.0 2.0 0.02 0.03 0.03 94 1008.2
20260509063336 46 64 2.0 3.0 0.02 0.02 0.02 94 1008.3
20260509063057 46 281 0.0 1.0 0.01 0.10 0.02 93 1007.3
20260509062833 46 59 2.0 2.0 0.05 0.02 0.02 94 1008.4
20260509062330 46 65 1.0 2.0 0.02 0.02 0.02 94 1008.4
20260509061827 46 64 2.0 3.0 0.02 0.02 0.02 94 1008.5
20260509061326 46 59 2.0 2.0 0.02 0.02 0.02 94 1008.6
20260509060822 46 58 2.0 2.0 0.02 0.01 0.01 94 1008.4
20260509060319 45 55 3.0 3.0 0.02 0.01 0.01 93 1008.5
20260509060057 46 281 0.0 1.0 0.01 0.09 0.01 92 1007.5
20260509055814 45 60 2.0 3.0 0.02 0.01 0.01 93 1008.6
20260509055310 45 62 2.0 2.0 0.00 0.00 0.00 93 1008.7
20260509054808 45 57 2.0 2.0 0.00 0.00 0.00 93 1008.8
20260509054304 45 55 2.0 2.0 0.00 0.00 0.00 92 1008.2
20260509053802 45 38 0.0 2.0 0.00 0.00 0.00 92 1008.0
20260509053259 45 57 2.0 2.0 0.02 0.00 0.00 92 1008.0
20260509053057 46 281 0.0 1.0 0.01 0.09 0.01 91 1007.0
20260509052757 45 56 2.0 2.0 0.02 0.00 0.00 92 1008.1
20260509052254 45 64 2.0 2.0 0.00 0.00 0.00 91 1008.0
20260509051752 45 52 0.0 2.0 0.00 0.00 0.00 91 1008.0
20260509051556 46 281 0.0 1.0 0.00 0.08 0.00 90 1007.0
20260509051250 46 50 2.0 3.0 0.00 0.00 0.00 91 1008.2
20260509050746 46 54 1.0 2.0 0.00 0.00 0.00 91 1008.1
20260509050243 46 68 2.0 3.0 0.00 0.00 0.00 91 1008.0
20260509050057 46 281 0.0 1.0 0.00 0.08 0.00 90 1007.2
20260509045740 46 63 2.0 2.0 0.00 0.00 0.00 90 1008.0
20260509045237 46 48 2.0 3.0 0.00 0.00 0.00 90 1008.1
20260509044734 46 67 3.0 3.0 0.00 0.00 0.00 90 1008.1
20260509044557 46 281 0.0 1.0 0.00 0.08 0.00 90 1007.2
20260509044232 46 73 3.0 3.0 0.00 0.00 0.00 90 1008.0
20260509043728 46 70 2.0 3.0 0.00 0.00 0.00 90 1007.8
20260509043224 46 59 2.0 2.0 0.00 0.00 0.00 90 1008.0
20260509043056 46 281 0.0 1.0 0.00 0.12 0.00 90 1007.2
20260509042720 46 65 2.0 2.0 0.00 0.00 0.00 90 1008.2
20260509042217 46 56 1.0 2.0 0.00 0.00 0.00 90 1008.1
20260509041714 46 57 2.0 2.0 0.00 0.00 0.00 90 1008.2
20260509041556 46 281 0.0 1.0 0.00 0.13 0.00 90 1007.4
20260509041211 46 47 2.0 2.0 0.00 0.00 0.00 90 1008.3
20260509040709 46 58 2.0 3.0 0.00 0.00 0.00 90 1008.4
20260509040205 46 63 2.0 3.0 0.00 0.00 0.00 91 1008.3
20260509040057 46 281 0.0 1.0 0.00 0.17 0.00 91 1007.5
20260509035702 45 64 1.0 3.0 0.00 0.17 0.17 91 1008.4
20260509035159 45 62 2.0 2.0 0.00 0.17 0.17 91 1008.5
20260509034657 45 49 2.0 3.0 0.00 0.17 0.17 91 1008.4
20260509034556 46 281 0.0 1.0 0.00 0.20 0.17 91 1007.5
20260509034153 45 46 3.0 3.0 0.00 0.17 0.17 91 1008.5
20260509033651 45 62 0.0 3.0 0.00 0.17 0.17 91 1008.1
20260509033147 45 68 3.0 3.0 0.00 0.17 0.17 91 1008.4
20260509033057 45 281 0.0 1.0 0.00 0.25 0.17 90 1007.5
20260509032645 44 55 2.0 3.0 0.00 0.17 0.17 91 1008.5
20260509032142 44 56 2.0 3.0 0.00 0.17 0.17 91 1008.4
20260509031639 44 55 1.0 3.0 0.00 0.17 0.17 91 1008.3
20260509031136 44 67 2.0 3.0 0.00 0.17 0.17 90 1008.2
20260509030635 44 56 2.0 2.0 0.00 0.17 0.17 90 1008.4
20260509030132 45 61 2.0 3.0 0.00 0.17 0.17 90 1008.4
20260509030056 46 281 0.0 0.0 0.00 0.25 0.17 87 1007.6
20260509025627 45 64 1.0 2.0 0.00 0.17 0.17 89 1008.4
20260509025123 45 61 2.0 3.0 0.00 0.17 0.17 89 1008.4
20260509024619 45 59 2.0 2.0 0.00 0.17 0.17 89 1008.5
20260509024556 46 281 0.0 1.0 0.00 0.25 0.17 86 1007.5
20260509024115 45 46 2.0 2.0 0.00 0.17 0.17 89 1008.5
20260509023614 45 64 2.0 3.0 0.00 0.17 0.17 88 1008.3
20260509023110 45 55 2.0 2.0 0.00 0.17 0.17 88 1008.4
20260509023057 47 281 0.0 0.0 0.00 0.25 0.17 85 1007.5
20260509022606 46 65 1.0 2.0 0.00 0.17 0.17 87 1008.3
20260509022104 46 59 2.0 2.0 0.00 0.17 0.17 86 1008.3
20260509021601 46 49 2.0 3.0 0.00 0.17 0.17 85 1008.2
20260509021556 48 281 0.0 0.0 0.00 0.25 0.17 83 1007.5
20260509021058 46 47 2.0 2.0 0.00 0.17 0.17 85 1008.4
20260509020557 47 55 2.0 3.0 0.00 0.17 0.17 85 1008.3
20260509020053 47 77 2.0 3.0 0.00 0.17 0.17 84 1008.3
20260509015552 47 46 0.0 2.0 0.00 0.17 0.17 83 1008.4
20260509015049 48 62 2.0 2.0 0.00 0.17 0.17 82 1008.2
20260509014557 49 281 0.0 0.0 0.00 0.25 0.17 80 1007.4
20260509014545 48 60 2.0 2.0 0.00 0.17 0.17 81 1008.2
20260509014042 48 55 2.0 3.0 0.00 0.17 0.17 81 1008.0
20260509013539 48 59 2.0 2.0 0.00 0.17 0.17 81 1008.2
20260509013034 49 54 2.0 3.0 0.00 0.17 0.17 80 1008.2
20260509012531 49 56 2.0 2.0 0.00 0.17 0.17 80 1008.1
20260509012028 49 57 2.0 2.0 0.00 0.17 0.17 80 1008.2
20260509011526 49 58 2.0 2.0 0.00 0.17 0.17 80 1008.2
20260509011023 49 57 2.0 3.0 0.00 0.17 0.17 81 1008.0
20260509010521 49 57 2.0 2.0 0.00 0.17 0.17 80 1008.0
20260509010056 49 281 0.0 1.0 0.00 0.25 0.17 79 1007.1
20260509010017 49 52 2.0 2.0 0.00 0.17 0.17 79 1007.9
20260509005515 49 52 2.0 2.0 0.00 0.17 0.17 79 1008.0
20260509005015 49 55 1.0 2.0 0.00 0.17 0.17 79 1007.7
20260509004556 49 281 0.0 1.0 0.00 0.25 0.17 78 1006.9
20260509004512 49 48 1.0 2.0 0.00 0.17 0.17 78 1007.6
20260509004009 49 51 1.0 2.0 0.00 0.17 0.17 78 1007.5
20260509003508 49 56 1.0 2.0 0.00 0.17 0.17 78 1007.5
20260509003056 50 281 0.0 1.0 0.00 0.25 0.17 77 1006.5
20260509003004 49 51 2.0 2.0 0.00 0.17 0.17 77 1007.3
20260509002503 49 40 1.0 2.0 0.00 0.17 0.17 77 1007.4
20260509001959 50 56 2.0 3.0 0.00 0.17 0.17 76 1007.3
20260509001556 50 281 0.0 1.0 0.00 0.25 0.17 76 1006.6
20260509001455 50 49 2.0 2.0 0.00 0.17 0.17 76 1007.3
20260509000952 50 54 2.0 3.0 0.00 0.17 0.17 75 1007.4
20260509000451 50 53 2.0 3.0 0.00 0.17 0.17 76 1007.5
20260509000055 50 274 0.0 1.0 0.00 0.25 0.17 76 1006.7
20260508235946 50 38 0.0 2.0 0.00 0.17 0.17 76 1007.5
20260508235444 50 61 2.0 2.0 0.00 0.17 0.17 77 1007.7
20260508234940 50 52 2.0 2.0 0.00 0.17 0.17 76 1007.6
20260508234556 50 274 0.0 0.0 0.00 0.25 0.17 76 1006.7
20260508234437 50 52 1.0 2.0 0.00 0.17 0.17 75 1007.4
20260508233935 50 51 2.0 2.0 0.00 0.17 0.17 76 1007.4
20260508233434 50 65 2.0 2.0 0.00 0.17 0.17 75 1007.3
20260508233057 50 274 0.0 2.0 0.00 0.25 0.17 74 1006.5
20260508232930 50 23 0.0 2.0 0.00 0.17 0.17 74 1007.1
20260508232428 50 57 0.0 2.0 0.00 0.17 0.17 75 1007.3
20260508231925 50 37 0.0 2.0 0.00 0.17 0.17 75 1007.1
20260508231557 51 221 0.0 3.0 0.00 0.25 0.17 74 1006.2
20260508231422 50 32 1.0 2.0 0.00 0.17 0.17 74 1007.0
20260508230919 51 76 1.0 2.0 0.00 0.17 0.17 72 1007.1
20260508230415 51 82 0.0 3.0 0.00 0.17 0.17 72 1006.9
20260508230057 51 277 0.0 2.0 0.00 0.25 0.17 73 1006.2
20260508225912 51 50 1.0 2.0 0.00 0.17 0.17 73 1006.9
20260508225409 51 47 2.0 3.0 0.00 0.17 0.17 72 1007.2
20260508224907 51 52 1.0 2.0 0.00 0.17 0.17 72 1007.0
20260508224557 52 263 1.0 2.0 0.00 0.25 0.17 72 1006.4
20260508224404 51 36 0.0 2.0 0.00 0.17 0.17 71 1007.3
20260508223902 52 26 1.0 2.0 0.00 0.17 0.17 71 1006.8
20260508223359 52 35 0.0 2.0 0.00 0.17 0.17 70 1007.1
20260508222856 52 48 2.0 3.0 0.00 0.17 0.17 68 1007.0
20260508222353 52 25 2.0 3.0 0.00 0.17 0.17 68 1007.0
20260508221850 52 34 0.0 2.0 0.00 0.17 0.17 66 1007.1
20260508221557 52 235 2.0 3.0 0.00 0.25 0.17 65 1006.3
20260508221345 53 218 0.0 2.0 0.00 0.17 0.17 63 1007.2
20260508220842 52 32 1.0 2.0 0.00 0.17 0.17 62 1007.1
20260508220339 52 240 0.0 2.0 0.00 0.17 0.17 68 1007.1
20260508220056 51 233 1.0 3.0 0.00 0.25 0.17 69 1006.4
20260508215835 52 40 0.0 2.0 0.00 0.17 0.17 67 1007.2
20260508215332 51 240 1.0 2.0 0.00 0.17 0.17 69 1007.0
20260508214829 51 280 2.0 4.0 0.00 0.17 0.17 71 1007.1
20260508214556 51 231 2.0 10.0 0.00 0.25 0.17 72 1006.4
20260508214326 51 250 2.0 6.0 0.00 0.17 0.17 71 1007.2
20260508213822 50 205 1.0 6.0 0.00 0.17 0.17 74 1007.2
20260508213319 50 225 4.0 5.0 0.00 0.17 0.17 74 1007.1
20260508213057 51 234 3.0 9.0 0.00 0.25 0.17 75 1006.4
20260508212816 50 221 3.0 9.0 0.00 0.17 0.17 72 1007.1
20260508212312 50 196 0.0 8.0 0.00 0.17 0.17 72 1007.5
20260508211808 51 229 8.0 10.0 0.00 0.17 0.17 70 1007.7
20260508211556 52 227 3.0 7.0 0.00 0.25 0.17 69 1006.8
20260508211304 51 227 3.0 9.0 0.00 0.17 0.17 67 1007.6
20260508210802 52 232 2.0 3.0 0.00 0.17 0.17 62 1007.4
20260508210258 53 211 2.0 2.0 0.00 0.17 0.17 62 1007.4
20260508205755 53 243 0.0 2.0 0.00 0.17 0.17 57 1007.3
20260508205251 53 39 1.0 1.0 0.00 0.17 0.17 56 1007.3
20260508204748 53 246 0.0 0.0 0.00 0.17 0.17 61 1007.1
20260508204244 53 60 0.0 1.0 0.00 0.17 0.17 62 1007.2
20260508203740 53 51 1.0 2.0 0.00 0.17 0.17 60 1007.2
20260508203237 54 40 0.0 1.0 0.00 0.17 0.17 57 1007.1
20260508203056 55 160 0.0 1.0 0.00 0.25 0.17 55 1006.4
20260508202732 54 42 0.0 2.0 0.00 0.17 0.17 54 1007.4
20260508202230 56 60 2.0 3.0 0.00 0.17 0.17 52 1007.3
20260508201727 56 49 0.0 3.0 0.00 0.17 0.17 51 1007.3
20260508201557 57 226 1.0 3.0 0.00 0.25 0.17 54 1006.4
20260508201223 59 69 0.0 2.0 0.00 0.17 0.17 52 1007.3
20260508200720 59 54 2.0 4.0 0.00 0.17 0.17 49 1007.4
20260508200217 57 256 3.0 3.0 0.00 0.17 0.17 55 1007.3
20260508200056 56 104 1.0 3.0 0.00 0.25 0.17 55 1006.5
20260508195713 57 66 2.0 4.0 0.00 0.17 0.17 51 1007.5
20260508195209 56 32 1.0 5.0 0.00 0.17 0.17 54 1007.8
20260508194706 56 247 2.0 4.0 0.00 0.17 0.17 63 1007.7
20260508194203 56 69 2.0 2.0 0.00 0.17 0.17 62 1007.7
20260508193700 55 49 0.0 2.0 0.00 0.17 0.17 58 1007.8
20260508193157 54 264 0.0 4.0 0.00 0.17 0.17 62 1007.7
20260508193057 55 133 1.0 3.0 0.00 0.25 0.17 64 1007.0
20260508192653 55 224 2.0 2.0 0.00 0.17 0.17 62 1007.9
20260508192150 55 272 1.0 4.0 0.00 0.17 0.17 63 1007.7
20260508191648 56 242 0.0 4.0 0.00 0.17 0.17 59 1007.9
20260508191556 55 217 1.0 3.0 0.00 0.25 0.17 60 1007.1
20260508191144 56 55 4.0 4.0 0.00 0.17 0.17 60 1008.1
20260508190642 56 54 1.0 4.0 0.00 0.17 0.17 59 1008.0
20260508190138 56 229 2.0 2.0 0.00 0.17 0.17 62 1007.9
20260508185635 55 220 2.0 2.0 0.00 0.17 0.17 70 1008.0
20260508185132 54 95 2.0 4.0 0.00 0.17 0.17 64 1008.3
20260508184629 53 158 0.0 2.0 0.00 0.17 0.17 71 1008.2
20260508184556 52 191 1.0 5.0 0.00 0.25 0.17 76 1007.6
20260508184126 53 70 2.0 3.0 0.00 0.17 0.17 76 1008.4
20260508183623 52 229 5.0 5.0 0.00 0.17 0.17 74 1008.6
20260508183119 51 80 2.0 2.0 0.00 0.17 0.17 75 1008.4
20260508183056 50 152 0.0 2.0 0.00 0.25 0.17 83 1007.7
20260508182615 49 52 2.0 2.0 0.02 0.17 0.17 84 1008.4
20260508182112 49 249 0.0 1.0 0.05 0.17 0.17 81 1008.7
20260508181613 49 75 3.0 3.0 0.02 0.17 0.17 76 1008.7
20260508181111 50 57 4.0 4.0 0.00 0.16 0.16 77 1008.6
20260508180607 51 63 0.0 5.0 0.00 0.16 0.16 76 1008.7
20260508180103 53 295 3.0 4.0 0.00 0.16 0.16 78 1008.6
20260508180056 52 239 1.0 3.0 0.01 0.25 0.17 84 1007.8
20260508175600 53 301 0.0 3.0 0.00 0.16 0.16 82 1008.7
20260508175058 52 92 4.0 4.0 0.00 0.16 0.16 84 1009.0
20260508174555 51 236 2.0 3.0 0.00 0.16 0.16 86 1008.7
20260508174052 50 295 0.0 1.0 0.00 0.16 0.16 91 1008.8
20260508173549 49 227 0.0 2.0 0.00 0.16 0.16 92 1008.6
20260508173044 47 210 1.0 2.0 0.00 0.16 0.16 90 1008.9
20260508172542 46 36 1.0 2.0 0.00 0.16 0.16 91 1009.0
20260508172038 46 76 0.0 3.0 0.00 0.16 0.16 91 1009.0
20260508171558 45 187 1.0 2.0 0.07 0.25 0.17 93 1008.3
20260508171535 46 75 0.0 2.0 0.02 0.16 0.16 92 1009.1
20260508171031 45 68 1.0 2.0 0.02 0.16 0.16 92 1008.9
20260508170529 44 62 2.0 2.0 0.00 0.16 0.16 92 1008.9
20260508170056 44 217 0.0 3.0 0.06 0.24 0.16 91 1008.2
20260508170026 44 49 2.0 2.0 0.00 0.16 0.16 91 1008.8
20260508165523 44 64 1.0 2.0 0.07 0.16 0.16 91 1008.8
20260508165020 44 261 0.0 4.0 0.19 0.16 0.16 91 1009.0
20260508164556 44 232 2.0 9.0 0.05 0.23 0.15 87 1008.5
20260508164516 43 55 2.0 5.0 0.14 0.14 0.14 89 1009.2
20260508164013 44 283 0.0 4.0 0.05 0.12 0.12 89 1009.3
20260508163511 44 53 1.0 2.0 0.07 0.12 0.12 88 1009.1
20260508163057 46 196 0.0 5.0 0.02 0.20 0.12 84 1008.2
20260508163007 44 39 2.0 2.0 0.05 0.11 0.11 86 1008.9
20260508162504 45 25 0.0 2.0 0.09 0.11 0.11 83 1008.8
20260508162001 45 50 2.0 5.0 0.12 0.11 0.11 80 1008.9
20260508161557 48 53 1.0 5.0 0.00 0.18 0.10 74 1008.1
20260508161458 47 84 4.0 5.0 0.00 0.09 0.09 75 1009.0
20260508160955 48 77 2.0 4.0 0.00 0.09 0.09 74 1008.5
20260508160454 49 58 3.0 4.0 0.00 0.09 0.09 73 1008.2
20260508160055 49 134 0.0 1.0 0.00 0.18 0.10 75 1007.2
20260508155950 49 59 2.0 3.0 0.00 0.09 0.09 73 1008.1
20260508155447 49 52 2.0 4.0 0.00 0.09 0.09 70 1008.3
20260508154944 50 56 2.0 3.0 0.00 0.09 0.09 71 1008.1
20260508154556 49 134 0.0 2.0 0.00 0.18 0.10 76 1007.3
20260508154442 49 64 2.0 2.0 0.00 0.09 0.09 73 1008.0
20260508153938 49 70 2.0 3.0 0.00 0.09 0.09 70 1008.2
20260508153435 49 60 0.0 3.0 0.00 0.09 0.09 73 1008.3
20260508153057 48 233 0.0 1.0 0.00 0.18 0.10 80 1007.6
20260508152931 48 44 0.0 2.0 0.00 0.09 0.09 77 1008.5
20260508152428 47 73 2.0 2.0 0.00 0.09 0.09 75 1008.4
20260508151924 47 65 0.0 2.0 0.00 0.09 0.09 72 1008.4
20260508151556 47 233 0.0 5.0 0.00 0.18 0.10 75 1007.6
20260508151421 47 47 0.0 2.0 0.00 0.09 0.09 72 1008.5
20260508150917 47 59 2.0 3.0 0.00 0.09 0.09 75 1008.3
20260508150414 47 226 2.0 2.0 0.00 0.09 0.09 79 1008.4
20260508150056 46 233 0.0 3.0 0.00 0.18 0.10 80 1007.6
20260508145910 47 75 2.0 3.0 0.00 0.09 0.09 77 1008.2
20260508145407 47 242 0.0 2.0 0.00 0.09 0.09 82 1008.6
20260508144904 46 64 2.0 2.0 0.00 0.09 0.09 80 1008.7
20260508144556 45 81 0.0 2.0 0.01 0.18 0.10 84 1007.7
20260508144402 45 53 2.0 2.0 0.00 0.09 0.09 81 1008.6
20260508143859 45 67 2.0 2.0 0.00 0.09 0.09 84 1008.5
20260508143356 45 61 2.0 3.0 0.00 0.09 0.09 85 1008.6
20260508143057 44 216 0.0 2.0 0.01 0.18 0.10 93 1007.8
20260508142852 45 49 2.0 3.0 0.00 0.09 0.09 88 1008.6
20260508142349 45 65 2.0 3.0 0.00 0.09 0.09 88 1008.8
20260508141846 44 50 2.0 2.0 0.00 0.09 0.09 89 1008.7
20260508141556 43 207 0.0 1.0 0.01 0.18 0.10 95 1007.7
20260508141343 44 47 1.0 2.0 0.00 0.09 0.09 93 1008.5
20260508140840 43 44 1.0 2.0 0.00 0.09 0.09 94 1008.9
20260508140337 42 55 2.0 2.0 0.00 0.09 0.09 94 1008.8
20260508140056 42 224 0.0 1.0 0.01 0.18 0.10 95 1008.1
20260508135833 42 58 2.0 2.0 0.00 0.09 0.09 95 1008.9
20260508135329 42 64 2.0 3.0 0.00 0.09 0.09 95 1008.9
20260508134825 41 57 2.0 2.0 0.00 0.09 0.09 95 1009.0
20260508134557 41 246 0.0 1.0 0.00 0.17 0.09 95 1008.3
20260508134322 41 57 2.0 2.0 0.00 0.09 0.09 94 1009.0
20260508133819 41 66 0.0 2.0 0.00 0.09 0.09 95 1009.2
20260508133317 41 72 2.0 3.0 0.00 0.09 0.09 95 1009.1
20260508133057 40 246 0.0 1.0 0.00 0.17 0.09 95 1008.5
20260508132814 40 73 1.0 2.0 0.00 0.09 0.09 95 1009.3
20260508132312 40 58 2.0 2.0 0.00 0.09 0.09 94 1009.5
20260508131808 40 72 0.0 2.0 0.00 0.09 0.09 94 1009.1
20260508131556 40 246 0.0 2.0 0.00 0.17 0.09 94 1008.7
20260508131303 40 66 0.0 2.0 0.00 0.09 0.09 94 1009.4
20260508130800 40 48 1.0 1.0 0.00 0.09 0.09 94 1009.3
20260508130258 40 48 1.0 2.0 0.00 0.09 0.09 94 1009.1
20260508130056 40 246 1.0 2.0 0.00 0.17 0.09 94 1008.4
20260508125753 40 224 0.0 3.0 0.00 0.09 0.09 93 1009.3
20260508125249 40 49 0.0 2.0 0.00 0.09 0.09 94 1008.9
20260508124749 40 278 0.0 2.0 0.00 0.09 0.09 94 1009.2
20260508124556 39 290 0.0 2.0 0.00 0.17 0.09 95 1008.5
20260508124245 39 58 2.0 2.0 0.00 0.09 0.09 94 1009.1
20260508123743 39 58 2.0 4.0 0.00 0.09 0.09 94 1009.0
20260508123241 39 57 2.0 3.0 0.00 0.09 0.09 95 1009.1
20260508123056 39 64 0.0 2.0 0.00 0.17 0.09 95 1008.4
20260508122737 39 58 0.0 2.0 0.00 0.09 0.09 95 1009.2
20260508122234 39 44 3.0 3.0 0.00 0.09 0.09 95 1009.2
20260508121731 39 48 2.0 3.0 0.00 0.09 0.09 96 1009.3
20260508121556 38 77 0.0 2.0 0.00 0.17 0.09 95 1008.6
20260508121230 38 56 1.0 2.0 0.00 0.09 0.09 96 1009.1
20260508120726 38 63 3.0 3.0 0.00 0.09 0.09 96 1009.3
20260508120225 38 61 2.0 3.0 0.00 0.09 0.09 96 1009.2
20260508120056 38 127 1.0 2.0 0.00 0.17 0.09 95 1008.2
20260508115722 38 68 2.0 3.0 0.00 0.09 0.09 96 1009.0
20260508115219 37 46 1.0 2.0 0.00 0.09 0.09 96 1009.0
20260508114715 37 48 0.0 3.0 0.00 0.09 0.09 97 1009.2
20260508114557 38 164 0.0 1.0 0.00 0.17 0.09 96 1008.2
20260508114212 37 48 2.0 3.0 0.00 0.09 0.09 97 1009.0
20260508113709 37 42 2.0 3.0 0.00 0.09 0.09 97 1009.0
20260508113208 37 65 2.0 2.0 0.00 0.09 0.09 97 1009.2
20260508112703 37 59 2.0 2.0 0.00 0.09 0.09 97 1009.0
20260508112200 37 54 1.0 2.0 0.00 0.09 0.09 97 1009.5
20260508111657 36 57 2.0 2.0 0.00 0.09 0.09 97 1009.3